Location: Waco, TX
(31.5480°N, 97.1670°W)
Time: 15:06:26
(UTC-05:00)

ISS - Pass Details

Date: 16 September 2019
Orbit: 411 x 421 km, 51.6° (Epoch: 17 September)

Event Time Altitude Azimuth Distance (km) Brightness Sun altitude
Rises 20:29:42 0° 196° (SSW) 2,326 0.1 -12.7°
Reaches altitude 10° 20:32:04 10° 180° (S) 1,468 -1.1 -13.2°
Enters shadow 20:34:22 21° 137° (SE) 971 -2.4 -13.7°
Maximum altitude 20:34:40 22° 128° (SE) 963 - -13.8°
Drops below altitude 10° 20:37:16 10° 76° (ENE) 1,473 - -14.3°
Sets 20:39:39 0° 60° (ENE) 2,338 - -14.8°
